Flag for Canada Weather past 2 weeks in Drummondville, Quebec, Canada

Now
54 °F

Cool.


Feels Like: 54 °F
Forecast: 55 / 74 °F
Wind: 3 mph from South

Location: Nicolet

Current Time: Aug 29, 2015 at 6:28:22 AM

Latest Report: Aug 29, 2015 at 6:00 AM


Visibility: N/A

Pressure: 30.11 "Hg

Humidity: 97%

Dew point: 53 °F

Location of DrummondvilleLocation

Historic Weather in Drummondville — Graph

°F

Drummondville temperature yesterday

Maximum temperature yesterday: 73 °F (at 3:00 PM)
Minimum temperature yesterday: 52 °F (at 6:00 AM)
Average temperature yesterday: 63 °F

Past Weeks' High & Low Weather Summary

 TemperatureHumidityPressure
High88 °F (Aug 19, 5:00 PM)100% (Aug 14, 11:00 PM)30.15 "Hg (Aug 14, 11:00 PM)
Low52 °F (Aug 28, 6:00 AM)49% (Aug 23, 4:00 PM)29.77 "Hg (Aug 24, 7:00 PM)
Average70 °F81%29.98 "Hg
* Reported Aug 14 5:00 AM — Aug 29 5:00 AM, Drummondville, Weather by CustomWeather, © 2015

Note: Actual official high and low records may vary slightly from our data, if they occured in-between our weather recording intervals... More about our weather records

Advertising

Drummondville weather history for previous 24 hours

 ConditionsComfort  
Time TempWeatherWind HumidityBarometerVisibility
5:00 AM
Sat, Aug 29
54 °FCool.3 mph96%30.11 "HgN/A
4:00 AM54 °FCool.3 mph96%30.10 "HgN/A
3:00 AM55 °FCool.5 mph95%30.11 "HgN/A
2:00 AM56 °FCool.5 mph91%30.11 "HgN/A
1:00 AM58 °FCool.3 mph91%30.11 "HgN/A
12:00 AM58 °FCool.3 mph89%30.11 "HgN/A
11:00 PM
Fri, Aug 28
60 °FCool.5 mph88%30.11 "HgN/A
10:00 PM62 °FCool.7 mph82%30.11 "HgN/A
9:00 PM64 °FMild.8 mph79%30.10 "HgN/A
8:00 PM65 °FMild.9 mph75%30.08 "HgN/A
7:00 PM68 °FMild.13 mph69%30.07 "HgN/A
6:00 PM71 °FMild.10 mph65%30.07 "HgN/A
5:00 PM71 °FMild.9 mph68%30.06 "HgN/A
4:00 PM72 °FMild.9 mph60%30.08 "HgN/A
3:00 PM73 °FMild.8 mph59%30.09 "HgN/A
2:00 PM72 °FMild.8 mph63%30.11 "HgN/A
1:00 PM71 °FMild.8 mph62%30.12 "HgN/A
12:00 PM67 °FMild.8 mph74%30.14 "HgN/A
11:00 AM66 °FMild.6 mph73%30.14 "HgN/A
10:00 AM64 °FMild.6 mph80%30.14 "HgN/A
9:00 AM62 °FCool.6 mph82%30.13 "HgN/A
8:00 AM58 °FCool.2 mph93%30.13 "HgN/A
7:00 AM52 °FCool.2 mph97%30.12 "HgN/A
6:00 AM52 °FCool.2 mph96%30.10 "HgN/A
Weather by CustomWeather, © 2015

See weather overviewHow to use our weather pages